VLG5AW LEMH-LFPO

Flight info

Callsign VLG5AW
Flight time N/A
Altitude 36000
Route MEROS DCT LAPIT DCT CHELY DCT LUMAS DCT SOFFY DCT MRM DCT MTL/N0435F340 DCT ETREK DCT MADOT DCT MOPEM DCT PIBAT
Aircraft A320/M-SDE3FGHIRWY/LB1

Departure

Time 2026-04-12 10:58
Airport Menorca Airport (LEMH)

Arrival

Time N/A
Airport Paris-Orly Airport (LFPO)
Time Latitude Longitude Altitude Speed Heading
2026-04-12 10:25 39.86463 4.22407 300 ft 0 kts 102°
2026-04-12 10:48 39.86465 4.22397 298 ft 3 kts 103°
2026-04-12 10:49 39.86470 4.22372 298 ft 3 kts 109°
2026-04-12 10:49 39.86478 4.22348 295 ft 3 kts 123°
2026-04-12 10:49 39.86490 4.22329 299 ft 3 kts 155°
2026-04-12 10:49 39.86503 4.22325 297 ft 1 kts 189°
2026-04-12 10:50 39.86507 4.22326 298 ft 0 kts 189°
2026-04-12 10:52 39.86498 4.22324 297 ft 3 kts 189°
2026-04-12 10:52 39.86473 4.22318 296 ft 5 kts 189°
2026-04-12 10:52 39.86434 4.22310 295 ft 6 kts 189°
2026-04-12 10:53 39.86397 4.22302 296 ft 5 kts 189°
2026-04-12 10:53 39.86361 4.22294 298 ft 6 kts 189°
2026-04-12 10:53 39.86322 4.22286 296 ft 5 kts 188°
2026-04-12 10:53 39.86287 4.22280 297 ft 5 kts 187°
2026-04-12 10:54 39.86224 4.22268 296 ft 9 kts 189°
2026-04-12 10:54 39.86188 4.22223 296 ft 7 kts 262°
2026-04-12 10:54 39.86191 4.22151 295 ft 11 kts 275°
2026-04-12 10:54 39.86125 4.22073 295 ft 18 kts 186°
2026-04-12 10:55 39.85988 4.22045 295 ft 20 kts 188°
2026-04-12 10:55 39.85858 4.22020 296 ft 18 kts 189°
2026-04-12 10:55 39.85745 4.21998 298 ft 16 kts 188°
2026-04-12 10:55 39.85638 4.21976 297 ft 16 kts 189°
2026-04-12 10:56 39.85529 4.21954 293 ft 16 kts 189°
2026-04-12 10:56 39.85421 4.21932 290 ft 16 kts 188°
2026-04-12 10:56 39.85309 4.21910 286 ft 17 kts 188°
2026-04-12 10:56 39.85187 4.21884 282 ft 15 kts 189°
2026-04-12 10:57 39.85131 4.21830 282 ft 9 kts 253°
2026-04-12 10:57 39.85137 4.21766 283 ft 6 kts 284°
2026-04-12 10:57 39.85147 4.21678 285 ft 13 kts 277°
2026-04-12 10:57 39.85179 4.21646 286 ft 0 kts
2026-04-12 10:58 39.85206 4.21652 287 ft 21 kts
2026-04-12 10:58 39.85646 4.21743 297 ft 104 kts
2026-04-12 10:58 39.86563 4.21919 584 ft 143 kts
2026-04-12 10:58 39.87542 4.22123 1499 ft 144 kts 17°
2026-04-12 10:59 39.88574 4.22353 2100 ft 157 kts 15°
2026-04-12 10:59 39.89730 4.22612 2434 ft 180 kts 16°
2026-04-12 10:59 39.91045 4.22903 2732 ft 205 kts 15°
2026-04-12 10:59 39.92532 4.23227 3125 ft 229 kts 13°
2026-04-12 11:00 39.94186 4.23580 3597 ft 250 kts 14°
2026-04-12 11:00 39.95943 4.23952 4346 ft 260 kts 15°
2026-04-12 11:00 39.97748 4.24331 5220 ft 265 kts 15°
2026-04-12 11:00 39.99589 4.24714 6098 ft 270 kts 14°
2026-04-12 11:01 40.01463 4.25106 6930 ft 275 kts 15°
2026-04-12 11:01 40.03365 4.25531 7742 ft 280 kts 16°
2026-04-12 11:01 40.05299 4.25986 8566 ft 285 kts 17°
2026-04-12 11:01 40.07265 4.26457 9376 ft 290 kts 17°
2026-04-12 11:02 40.09268 4.26940 10125 ft 296 kts 17°
2026-04-12 11:02 40.11371 4.27453 10442 ft 319 kts 16°
2026-04-12 11:02 40.13630 4.28008 10670 ft 342 kts 15°
2026-04-12 11:02 40.16050 4.28596 10838 ft 366 kts 15°
2026-04-12 11:03 40.18628 4.29218 10960 ft 387 kts 14°
2026-04-12 11:03 40.21323 4.29858 11369 ft 398 kts 14°
2026-04-12 11:03 40.24071 4.30499 11927 ft 404 kts 14°
2026-04-12 11:03 40.26854 4.31145 12491 ft 409 kts 14°
2026-04-12 11:04 40.29671 4.31799 13057 ft 414 kts 14°
2026-04-12 11:04 40.31561 4.32241 13419 ft 418 kts 14°
2026-04-12 11:04 40.34438 4.32922 13922 ft 422 kts 14°
2026-04-12 11:04 40.37336 4.33613 14442 ft 426 kts 14°
2026-04-12 11:05 40.40262 4.34316 14939 ft 429 kts 14°
2026-04-12 11:05 40.43214 4.35028 15403 ft 433 kts 13°
2026-04-12 11:05 40.46196 4.35749 15870 ft 437 kts 13°
2026-04-12 11:05 40.49194 4.36472 16390 ft 440 kts 13°
2026-04-12 11:06 40.52214 4.37196 16867 ft 443 kts 13°
2026-04-12 11:06 40.55259 4.37922 17354 ft 446 kts 12°
2026-04-12 11:06 40.58320 4.38650 17853 ft 449 kts 13°
2026-04-12 11:06 40.61404 4.39386 18279 ft 452 kts 13°
2026-04-12 11:07 40.64503 4.40127 18696 ft 454 kts 13°
2026-04-12 11:07 40.67621 4.40871 19083 ft 457 kts 13°
2026-04-12 11:07 40.70752 4.41622 19512 ft 458 kts 13°
2026-04-12 11:07 40.73899 4.42379 19871 ft 461 kts 13°
2026-04-12 11:08 40.77061 4.43140 20256 ft 463 kts 12°
2026-04-12 11:08 40.80235 4.43905 20632 ft 465 kts 13°
2026-04-12 11:08 40.83428 4.44675 20640 ft 467 kts 10°
2026-04-12 11:08 40.86627 4.45446 21080 ft 467 kts
2026-04-12 11:09 40.89831 4.46217 21469 ft 469 kts
2026-04-12 11:09 40.93049 4.46991 21819 ft 471 kts
2026-04-12 11:09 40.96286 4.47773 22141 ft 474 kts
2026-04-12 11:09 40.99534 4.48560 22462 ft 476 kts
2026-04-12 11:10 41.02804 4.49355 22775 ft 479 kts
2026-04-12 11:10 41.06092 4.50158 23074 ft 482 kts
2026-04-12 11:10 41.09394 4.50963 23358 ft 485 kts
2026-04-12 11:10 41.12725 4.51773 23608 ft 487 kts
2026-04-12 11:11 41.16067 4.52587 23869 ft 489 kts
2026-04-12 11:11 41.19417 4.53403 24127 ft 491 kts
2026-04-12 11:11 41.22785 4.54221 24426 ft 491 kts
2026-04-12 11:11 41.26142 4.55036 24816 ft 490 kts
2026-04-12 11:12 41.29497 4.55857 25186 ft 490 kts
2026-04-12 11:12 41.32839 4.56681 25557 ft 489 kts
2026-04-12 11:12 41.36183 4.57506 25923 ft 488 kts
2026-04-12 11:12 41.39518 4.58326 26324 ft 487 kts
2026-04-12 11:13 41.42843 4.59143 26727 ft 486 kts
2026-04-12 11:13 41.46167 4.59961 27111 ft 485 kts
2026-04-12 11:13 41.49482 4.60779 27492 ft 485 kts
2026-04-12 11:13 41.52796 4.61596 27868 ft 484 kts
2026-04-12 11:14 41.56105 4.62410 28255 ft 484 kts
2026-04-12 11:14 41.59410 4.63224 28650 ft 483 kts
2026-04-12 11:14 41.62715 4.64042 29050 ft 482 kts
2026-04-12 11:14 41.66014 4.64858 29449 ft 482 kts
2026-04-12 11:15 41.69265 4.65662 29861 ft 481 kts
2026-04-12 11:15 41.72554 4.66484 30215 ft 480 kts 11°
2026-04-12 11:15 41.75782 4.67629 30547 ft 480 kts 16°
2026-04-12 11:15 41.78979 4.68890 30891 ft 479 kts 16°
2026-04-12 11:16 41.82173 4.70145 31242 ft 478 kts 16°
2026-04-12 11:16 41.85360 4.71393 31594 ft 477 kts 16°
2026-04-12 11:16 41.88548 4.72638 31943 ft 476 kts 16°
2026-04-12 11:16 41.91722 4.73881 32288 ft 475 kts 16°
2026-04-12 11:17 41.94891 4.75124 32634 ft 474 kts 16°
2026-04-12 11:17 41.98059 4.76368 32964 ft 474 kts 16°
2026-04-12 11:17 42.01220 4.77613 33304 ft 473 kts 16°
2026-04-12 11:17 42.04374 4.78860 33648 ft 472 kts 16°
2026-04-12 11:18 42.07523 4.80106 33976 ft 471 kts 16°
2026-04-12 11:18 42.10666 4.81347 34262 ft 471 kts 16°
2026-04-12 11:18 42.13809 4.82591 34539 ft 471 kts 16°
2026-04-12 11:18 42.16951 4.83836 34810 ft 470 kts 16°
2026-04-12 11:19 42.20091 4.85080 35082 ft 470 kts 16°
2026-04-12 11:19 42.23223 4.86323 35336 ft 470 kts 16°
2026-04-12 11:19 42.26359 4.87571 35590 ft 469 kts 16°
2026-04-12 11:19 42.29493 4.88819 35824 ft 469 kts 16°
2026-04-12 11:20 42.32618 4.90062 36073 ft 469 kts 17°
2026-04-12 11:20 42.35749 4.91308 36295 ft 469 kts 17°
2026-04-12 11:20 42.38875 4.92556 36521 ft 469 kts 17°
2026-04-12 11:20 42.42003 4.93806 36737 ft 468 kts 17°
2026-04-12 11:21 42.45125 4.95055 36964 ft 468 kts 17°
2026-04-12 11:21 42.48245 4.96303 37187 ft 467 kts 17°
2026-04-12 11:21 42.51360 4.97550 37428 ft 466 kts 17°
2026-04-12 11:21 42.54468 4.98796 37626 ft 466 kts 17°
2026-04-12 11:22 42.57539 5.00030 37837 ft 466 kts 17°
2026-04-12 11:22 42.60657 5.01284 37909 ft 469 kts 17°
2026-04-12 11:22 42.66939 5.03820 37901 ft 472 kts 17°
2026-04-12 11:23 42.73243 5.06361 37900 ft 473 kts 17°